KSFQ

Details ICAO KSFQ
Name SUFFOLK EXECUTIVE
Region United States
Timezone America/New_York (UTC-5.0)
Plans Departing 24
Arriving 19
Stats Elevation 72 ft / 22 m (AMSL)
Location 36.682200° -76.600800°
Runways 2
Magnetic Variation 10.720° W
Sunrise 2021-12-04 12:04:35 UTC / 2021-12-04 07:04:35 Local
Sunset 2021-12-04 21:51:49 UTC / 2021-12-04 16:51:49 Local
Advertisement - Login to hide

Runways

ID Width Length Bearing (true/mag) Surface Threshold Overrun Markings Lighting
04 98 ft / 30 m 5,005 ft / 1,526 m 30.10° / 40.82° ASPHALT 213 ft / 65 m 0 ft / 0 m APP EDGE THRESHOLD REIL-OMNI
07 98 ft / 30 m 4,467 ft / 1,362 m 63.60° / 74.32° ASPHALT 180 ft / 55 m 364 ft / 111 m APP EDGE THRESHOLD
22 98 ft / 30 m 5,005 ft / 1,526 m 210.11° / 220.83° ASPHALT 213 ft / 65 m 0 ft / 0 m APP EDGE THRESHOLD REIL-OMNI
25 98 ft / 30 m 4,467 ft / 1,362 m 243.61° / 254.33° ASPHALT 0 ft / 0 m 0 ft / 0 m APP EDGE THRESHOLD

Map

Weather


0- 5 10 15 20 25 30 35+ Temperature / °C

Clouds and Precipitation
Forecast for 2021-12-04 18:00 UTC. Updated 3 hours ago

Ground ~20,000 ft ~40,000 ft Winds

METAR

KSFQ 041835Z AUTO 32003KT 10SM CLR 16/09 A3006 RMK AO2 T01610085

TAF

Not found

Frequencies

Unicom 122.70 MHz CTAF/UNICOM
Approach 127.90 MHz NORFOLK APP/DEP
Recorded 119.37 MHz AWOS 3
Warning: Do not use this data for real-world aviation or navigation. No guarantee of current accuracy is given.